When you browse on this site, cookies collect data to enhance your experience and personalize the content and advertising you see.
Visit our Privacy Policy to learn more. By continuing to use the site, you agree to this use of cookies and data.
  • In Austria
  • List of Countries
  • For 7 days
  • Water Temperature
  • Weather Map
  • News
  • Weather Widgets
  • user-avatar
    Login

    Hourly Weather Tirana

    Today, 20 August, Tuesday

    Time Temperature Precipitation Wind Pressure Humidity
    00:00 +24°C° 0 mm 1 mps 755 mmHg 53%
    01:00 +22°C° 0 mm 0 mps 755 mmHg 54%
    02:00 +24°C° 0 mm 1 mps 755 mmHg 53%
    03:00 +23°C° 0 mm 1 mps 755 mmHg 53%
    04:00 +23°C° 0 mm 1 mps 755 mmHg 52%
    05:00 +25°C° 0 mm 1 mps 755 mmHg 47%
    06:00 +27°C° 0 mm 1 mps 755 mmHg 42%
    07:00 +29°C° 0 mm 1 mps 755 mmHg 35%
    08:00 +32°C° 0 mm 1 mps 755 mmHg 31%
    09:00 +34°C° 0 mm 1 mps 755 mmHg 27%
    10:00 +37°C° 0 mm 2 mps 755 mmHg 23%
    11:00 +37°C° 0 mm 3 mps 755 mmHg 24%
    12:00 +38°C° 0 mm 4 mps 755 mmHg 25%
    13:00 +39°C° 0 mm 5 mps 755 mmHg 26%
    14:00 +37°C° 0 mm 4 mps 754 mmHg 28%
    15:00 +36°C° 0 mm 4 mps 754 mmHg 31%
    16:00 +35°C° 0 mm 3 mps 754 mmHg 33%
    17:00 +32°C° 0 mm 2 mps 754 mmHg 42%
    18:00 +29°C° 0 mm 1 mps 754 mmHg 51%
    19:00 +25°C° 0 mm 0 mps 754 mmHg 60%
    20:00 +24°C° 0 mm 0 mps 754 mmHg 60%
    21:00 +26°C° 0 mm 1 mps 754 mmHg 61%
    22:00 +26°C° 0 mm 1 mps 755 mmHg 61%
    23:00 +25°C° 0 mm 1 mps 755 mmHg 60%

    Tomorrow, 21 August, Wednesday

    Time Temperature Precipitation Wind Pressure Humidity
    00:00 +25°C° 0 mm 1 mps 755 mmHg 60%
    01:00 +25°C° 0 mm 1 mps 755 mmHg 59%
    02:00 +24°C° 0 mm 1 mps 755 mmHg 59%
    03:00 +24°C° 0 mm 1 mps 754 mmHg 59%
    04:00 +24°C° 0 mm 1 mps 754 mmHg 59%
    05:00 +26°C° 0 mm 1 mps 755 mmHg 53%
    06:00 +28°C° 0 mm 1 mps 755 mmHg 46%
    07:00 +29°C° 0 mm 1 mps 755 mmHg 40%
    08:00 +32°C° 0 mm 1 mps 755 mmHg 36%
    09:00 +34°C° 0 mm 1 mps 755 mmHg 31%
    10:00 +37°C° 0 mm 2 mps 754 mmHg 27%
    11:00 +37°C° 0 mm 3 mps 754 mmHg 28%
    12:00 +37°C° 0 mm 4 mps 754 mmHg 29%
    13:00 +38°C° 0 mm 4 mps 753 mmHg 29%
    14:00 +37°C° 0 mm 4 mps 753 mmHg 32%
    15:00 +36°C° 0 mm 4 mps 753 mmHg 34%
    16:00 +35°C° 0 mm 4 mps 753 mmHg 36%
    17:00 +33°C° 0 mm 3 mps 753 mmHg 45%
    18:00 +30°C° 0 mm 2 mps 753 mmHg 53%
    19:00 +27°C° 0 mm 1 mps 753 mmHg 61%
    20:00 +27°C° 0 mm 1 mps 754 mmHg 61%
    21:00 +26°C° 0 mm 1 mps 754 mmHg 62%
    22:00 +26°C° 0 mm 1 mps 754 mmHg 62%
    23:00 +25°C° 0 mm 1 mps 754 mmHg 61%

    Day after tomorrow, 22 August, Thursday

    Time Temperature Precipitation Wind Pressure Humidity
    00:00 +25°C° 0 mm 1 mps 754 mmHg 59%
    01:00 +25°C° 0 mm 1 mps 754 mmHg 57%
    02:00 +25°C° 0 mm 1 mps 754 mmHg 55%
    03:00 +24°C° 0 mm 1 mps 754 mmHg 53%
    04:00 +24°C° 0 mm 1 mps 754 mmHg 51%
    05:00 +26°C° 0 mm 1 mps 754 mmHg 44%
    06:00 +28°C° 0 mm 1 mps 755 mmHg 38%
    07:00 +30°C° 0 mm 2 mps 755 mmHg 31%
    08:00 +32°C° 0 mm 2 mps 755 mmHg 27%
    09:00 +35°C° 0 mm 1 mps 755 mmHg 22%
    10:00 +37°C° 0 mm 1 mps 755 mmHg 18%
    11:00 +39°C° 0 mm 2 mps 755 mmHg 18%
    12:00 +39°C° 0 mm 3 mps 754 mmHg 19%
    13:00 +41°C° 0 mm 4 mps 754 mmHg 19%
    14:00 +40°C° 0 mm 4 mps 754 mmHg 21%
    15:00 +38°C° 0 mm 4 mps 754 mmHg 23%
    16:00 +37°C° 0 mm 4 mps 753 mmHg 25%
    17:00 +35°C° 0 mm 3 mps 754 mmHg 30%
    18:00 +31°C° 0 mm 3 mps 754 mmHg 36%
    19:00 +28°C° 0 mm 2 mps 754 mmHg 42%
    20:00 +28°C° 0 mm 1 mps 754 mmHg 42%
    21:00 +27°C° 0 mm 1 mps 755 mmHg 43%
    22:00 +27°C° 0 mm 1 mps 755 mmHg 43%
    23:00 +26°C° 0 mm 1 mps 755 mmHg 43%

    23 August, Friday

    Time Temperature Precipitation Wind Pressure Humidity
    00:00 +26°C° 0 mm 1 mps 755 mmHg 43%
    01:00 +26°C° 0 mm 1 mps 755 mmHg 44%
    02:00 +26°C° 0 mm 1 mps 755 mmHg 43%
    03:00 +25°C° 0 mm 2 mps 755 mmHg 43%
    04:00 +25°C° 0 mm 2 mps 755 mmHg 43%
    05:00 +27°C° 0 mm 2 mps 755 mmHg 38%
    06:00 +29°C° 0 mm 2 mps 755 mmHg 34%
    07:00 +31°C° 0 mm 2 mps 755 mmHg 30%
    08:00 +35°C° 0 mm 2 mps 755 mmHg 26%
    09:00 +37°C° 0 mm 2 mps 755 mmHg 23%
    10:00 +40°C° 0 mm 2 mps 755 mmHg 19%
    11:00 +39°C° 0 mm 3 mps 755 mmHg 20%
    12:00 +38°C° 0 mm 4 mps 755 mmHg 21%
    13:00 +39°C° 0 mm 5 mps 755 mmHg 22%
    14:00 +37°C° 0 mm 4 mps 754 mmHg 25%
    15:00 +36°C° 0 mm 4 mps 754 mmHg 27%
    16:00 +36°C° 0 mm 4 mps 753 mmHg 29%
    17:00 +34°C° 0 mm 3 mps 754 mmHg 33%
    18:00 +31°C° 0 mm 2 mps 754 mmHg 37%
    19:00 +29°C° 0 mm 2 mps 754 mmHg 41%
    20:00 +29°C° 0 mm 2 mps 754 mmHg 41%
    21:00 +28°C° 0 mm 2 mps 754 mmHg 42%
    22:00 +28°C° 0 mm 2 mps 755 mmHg 42%
    23:00 +28°C° 0 mm 3 mps 755 mmHg 46%

    24 August, Saturday

    Time Temperature Precipitation Wind Pressure Humidity
    00:00 +27°C° 0 mm 3 mps 755 mmHg 49%
    01:00 +27°C° 0 mm 3 mps 755 mmHg 53%
    02:00 +27°C° 0 mm 3 mps 755 mmHg 51%
    03:00 +26°C° 0 mm 2 mps 754 mmHg 49%
    04:00 +26°C° 0 mm 2 mps 754 mmHg 47%
    05:00 +28°C° 0 mm 2 mps 754 mmHg 42%
    06:00 +30°C° 0 mm 1 mps 754 mmHg 37%
    07:00 +31°C° 0 mm 1 mps 754 mmHg 33%
    08:00 +35°C° 0 mm 2 mps 754 mmHg 29%
    09:00 +37°C° 0 mm 2 mps 754 mmHg 25%
    10:00 +40°C° 0 mm 3 mps 755 mmHg 21%
    11:00 +38°C° 0 mm 4 mps 754 mmHg 24%
    12:00 +37°C° 0 mm 5 mps 754 mmHg 27%
    13:00 +36°C° 0 mm 6 mps 753 mmHg 30%
    14:00 +36°C° 0 mm 6 mps 753 mmHg 30%
    15:00 +36°C° 0 mm 6 mps 753 mmHg 30%
    16:00 +36°C° 0 mm 6 mps 752 mmHg 31%
    17:00 +34°C° 0.1 mm 6 mps 752 mmHg 36%
    18:00 +32°C° 0.1 mm 5 mps 753 mmHg 41%
    19:00 +29°C° 0.1 mm 4 mps 753 mmHg 46%
    20:00 +29°C° 0 mm 4 mps 753 mmHg 48%
    21:00 +28°C° 0 mm 4 mps 753 mmHg 49%
    22:00 +27°C° 0 mm 4 mps 754 mmHg 51%
    23:00 +27°C° 0 mm 4 mps 753 mmHg 52%

    25 August, Sunday

    Time Temperature Precipitation Wind Pressure Humidity
    00:00 +26°C° 0 mm 4 mps 753 mmHg 53%
    01:00 +25°C° 0 mm 3 mps 753 mmHg 55%
    02:00 +25°C° 0 mm 3 mps 753 mmHg 52%
    03:00 +25°C° 0 mm 2 mps 753 mmHg 48%
    04:00 +25°C° 0 mm 1 mps 753 mmHg 45%
    05:00 +27°C° 0 mm 1 mps 753 mmHg 41%
    06:00 +29°C° 0 mm 1 mps 753 mmHg 36%
    07:00 +30°C° 0 mm 1 mps 753 mmHg 32%
    08:00 +34°C° 0 mm 2 mps 753 mmHg 28%
    09:00 +37°C° 0 mm 2 mps 753 mmHg 24%
    10:00 +39°C° 0 mm 3 mps 753 mmHg 20%
    11:00 +40°C° 0 mm 4 mps 753 mmHg 22%
    12:00 +39°C° 0 mm 5 mps 752 mmHg 24%
    13:00 +38°C° 0 mm 7 mps 752 mmHg 27%
    14:00 +38°C° 0 mm 6 mps 752 mmHg 27%
    15:00 +38°C° 0 mm 6 mps 752 mmHg 28%
    16:00 +36°C° 0 mm 5 mps 752 mmHg 29%
    17:00 +34°C° 0 mm 5 mps 752 mmHg 37%
    18:00 +30°C° 0 mm 5 mps 752 mmHg 44%
    19:00 +28°C° 0 mm 4 mps 753 mmHg 52%
    20:00 +28°C° 0 mm 4 mps 753 mmHg 52%
    21:00 +28°C° 0 mm 3 mps 753 mmHg 52%
    22:00 +28°C° 0 mm 3 mps 753 mmHg 52%
    23:00 +27°C° 0.1 mm 3 mps 753 mmHg 54%
    Show more